Wind_Speed
29 27 28 29 27 23 20 19 19 18 16 14 13 11 10 9 9 9 10 11 15 18 19 18 15 15 14 14 15 16 18 18 18 19 22 24 25 26 28 28 28 27
30 29 30 32 30 26 23 21 20 19 18 17 15 14 13 12 10 10 10 11 14 18 20 20 19 17 15 14 15 16 19 20 20 20 22 24 25 26 27 27 28 27
30 32 33 34 32 29 26 23 22 20 19 19 18 17 17 15 13 11 10 11 13 16 19 21 20 19 17 15 15 15 18 20 22 23 23 24 25 27 27 26 25 25
30 33 34 33 33 32 28 25 24 22 20 20 19 19 19 18 16 14 11 12 13 15 17 20 20 20 19 18 16 15 17 19 22 24 25 26 26 26 27 25 23 23
32 32 32 32 33 33 30 28 27 24 22 21 20 21 21 21 19 17 13 12 14 15 16 19 21 21 21 19 18 16 17 20 22 25 26 27 28 27 26 24 22 22
35 33 32 31 31 33 32 30 28 26 25 24 22 21 22 22 21 19 16 14 15 16 17 19 21 22 22 21 20 18 18 21 24 25 26 27 28 28 26 24 22 21
38 35 35 33 31 32 32 32 31 29 27 26 24 23 22 23 23 21 18 16 16 17 18 19 20 21 22 22 22 20 19 22 25 26 26 26 27 26 25 24 21 19
40 39 38 37 34 32 31 32 32 31 30 28 26 24 24 24 23 22 20 18 18 19 19 20 20 20 21 21 22 20 20 23 25 26 26 25 25 24 23 23 20 18
44 44 43 41 38 35 32 32 33 33 32 30 27 25 25 25 24 22 21 20 20 20 21 21 21 20 20 21 21 20 21 24 26 26 26 25 24 23 22 20 17 15
48 49 48 44 41 39 35 33 33 33 32 31 28 27 26 26 24 22 21 22 22 21 21 22 22 20 20 21 21 20 22 25 26 26 26 24 21 21 21 17 13 11
50 51 50 46 44 41 38 36 35 34 33 31 29 28 27 26 23 21 21 23 23 23 22 22 22 20 20 21 21 20 23 26 26 26 26 23 19 19 18 13 9 7
47 49 48 46 44 43 41 38 36 35 34 32 31 29 27 25 23 21 21 22 23 24 23 23 22 20 19 20 20 20 23 26 26 25 24 21 17 18 17 11 7 6
45 45 45 45 43 42 42 40 37 35 34 33 31 29 26 24 23 21 21 22 24 25 24 23 23 20 19 20 20 20 23 25 25 24 23 19 16 17 16 10 6 8
44 43 43 43 41 39 39 38 36 35 34 32 30 28 25 24 23 21 21 23 24 26 25 25 23 21 20 20 19 20 23 24 24 23 21 17 14 15 14 9 7 9
45 43 43 42 41 39 38 37 35 33 32 31 29 27 25 24 23 22 23 24 25 26 26 25 24 21 21 20 19 21 23 23 22 22 20 16 13 14 13 10 8 9
46 45 44 43 42 40 38 37 35 33 32 31 29 28 26 25 24 24 24 25 26 27 27 26 24 22 21 20 19 21 22 22 22 21 19 16 14 14 13 10 8 9
48 46 45 45 43 42 40 38 36 35 33 31 31 29 27 26 26 25 25 26 27 27 27 26 24 22 21 20 19 20 21 21 21 20 18 15 14 14 13 10 9 9
49 48 47 46 45 43 42 41 39 37 35 33 33 31 29 27 27 27 27 28 28 28 28 26 24 23 22 20 19 20 20 20 21 19 17 15 15 14 13 11 8 9
51 50 48 47 46 44 43 42 41 39 38 36 35 33 31 30 29 29 30 30 29 29 28 26 24 23 22 21 19 19 19 20 20 19 17 15 15 14 13 12 9 8
51 52 50 47 46 46 45 44 43 42 40 39 37 35 35 34 33 32 32 32 31 31 29 26 25 24 23 21 19 19 19 20 19 18 17 16 16 14 14 13 10 9
51 53 52 49 47 47 47 46 45 44 43 41 39 37 37 36 35 35 34 33 32 32 29 26 25 24 24 21 19 18 19 19 19 18 17 17 16 15 14 14 12 11
50 50 49 48 48 49 49 48 47 46 44 42 39 38 38 37 37 37 35 33 33 32 29 26 25 25 24 21 19 18 19 19 19 18 17 17 16 16 15 15 14 14
46 47 46 45 47 51 51 49 48 46 44 42 40 39 38 37 37 37 35 33 33 32 29 27 25 26 24 21 19 18 19 19 19 18 17 17 16 16 16 16 15 15
45 45 43 42 45 49 50 48 46 44 42 40 39 39 38 37 36 36 34 33 33 31 29 27 26 26 24 20 19 19 19 19 19 18 17 17 16 16 16 16 15 16
44 44 42 40 42 44 45 43 41 40 39 39 38 38 37 37 36 35 33 32 32 31 30 28 27 26 24 20 19 19 19 19 19 19 18 17 16 16 16 15 15 16
44 43 39 37 37 38 38 37 36 36 37 37 37 37 37 36 35 34 33 32 32 32 30 28 28 26 23 21 20 20 19 19 20 19 18 17 16 16 15 14 14 16
Wind_Direction
234 240 240 239 240 241 242 244 245 246 247 248 252 259 266 275 285 295 297 288 279 274 276 280 278 281 290 301 310 315 319 322 319 314 310 309 309 307 304 302 304 307
232 240 244 241 239 240 241 245 247 247 247 247 248 252 257 266 279 290 296 295 286 277 277 279 277 279 286 296 306 315 320 320 316 311 310 310 311 310 308 306 307 307
232 238 243 240 238 239 240 244 246 247 247 247 247 250 253 258 269 280 289 297 295 287 283 282 280 279 282 292 304 313 320 319 314 311 310 312 313 312 312 311 309 307
234 235 239 238 237 239 240 242 245 246 248 251 251 251 252 256 263 272 282 294 299 296 291 288 284 280 282 290 302 313 319 318 313 311 311 314 315 314 313 312 309 307
235 235 236 238 238 239 240 241 244 246 247 250 253 253 254 256 261 268 275 285 294 296 294 290 287 284 285 289 298 309 318 317 314 313 313 316 317 316 314 311 308 308
236 236 234 236 238 240 241 242 245 246 246 249 254 256 256 257 260 265 269 275 285 292 293 290 288 286 286 290 296 306 316 317 315 315 315 318 318 316 313 309 307 306
235 238 235 234 237 240 242 243 246 247 247 248 252 256 259 260 260 264 269 272 279 287 291 290 288 284 283 287 294 304 314 316 315 315 316 318 317 314 310 308 309 308
232 239 239 236 236 240 243 244 247 250 250 250 251 254 260 262 261 265 270 271 275 283 289 291 289 283 279 282 289 300 310 313 313 313 316 318 317 314 312 313 314 312
229 236 240 239 237 239 243 246 249 252 253 253 251 252 260 263 263 267 270 269 271 279 287 291 291 285 278 279 286 297 306 310 311 313 317 319 318 316 316 317 316 313
229 232 237 240 238 239 242 246 250 252 255 255 252 251 258 263 265 268 269 267 269 276 284 290 291 285 277 277 284 296 303 307 310 313 318 320 318 318 319 317 313 309
229 232 237 240 239 240 242 246 250 252 255 255 251 251 257 262 266 268 269 268 269 273 281 288 289 284 277 275 283 294 301 306 309 313 318 320 319 319 319 314 306 299
231 234 237 240 240 240 242 246 249 251 253 253 251 252 256 261 265 268 269 269 269 271 278 285 287 284 276 275 283 294 301 305 309 313 317 318 318 318 318 312 294 275
231 234 237 240 241 241 243 246 248 249 250 250 250 252 254 258 264 268 271 270 268 270 275 282 286 283 275 274 283 293 300 304 307 312 316 316 316 318 316 308 277 260
231 233 236 239 241 242 243 245 246 246 246 246 248 250 252 256 263 267 269 269 268 268 272 280 285 282 273 273 281 291 297 302 306 311 313 312 313 313 311 299 262 250
232 233 235 237 239 241 242 243 244 243 243 244 246 248 251 255 260 264 267 268 268 267 270 278 284 280 271 271 278 288 295 299 304 308 308 306 305 305 306 297 264 245
233 233 234 236 237 239 241 242 242 242 242 244 247 249 252 255 258 262 265 267 268 267 268 275 282 278 270 269 276 286 293 296 301 304 303 300 297 296 301 300 275 247
234 233 234 236 237 238 239 240 241 243 244 246 248 250 252 254 258 261 264 267 267 265 265 274 280 275 267 267 274 284 290 294 298 301 299 295 290 289 295 297 282 252
235 235 234 235 237 238 238 239 240 242 244 246 249 250 251 254 258 261 264 267 266 261 262 272 277 270 263 263 272 281 287 291 295 296 293 289 285 285 287 289 284 257
237 237 235 235 237 237 237 239 240 242 244 246 248 250 251 254 258 261 264 266 264 259 259 269 274 265 258 260 268 277 283 288 291 290 288 284 281 281 281 280 278 259
236 238 237 236 236 237 238 240 241 243 246 248 249 251 252 254 257 261 264 264 261 256 258 267 270 260 253 257 264 272 278 284 286 284 282 280 278 278 277 275 272 262
235 237 238 236 236 237 239 241 243 245 247 249 252 253 254 256 257 258 262 262 257 253 257 266 266 254 249 254 260 268 275 280 281 278 277 277 275 274 274 273 270 266
234 237 236 235 235 237 240 242 244 246 248 251 254 255 255 255 254 255 258 258 253 251 257 265 260 249 247 252 257 264 272 275 275 273 272 273 273 271 271 270 270 270
232 235 235 234 235 238 240 242 245 248 251 253 254 253 253 251 251 253 255 254 249 250 258 263 254 245 245 250 255 262 268 271 271 269 268 269 270 269 269 269 270 272
231 234 235 234 236 239 241 244 247 249 251 251 249 249 249 248 249 251 252 250 247 250 259 259 248 241 242 247 251 258 264 267 267 266 265 265 266 266 268 271 272 273
230 234 234 234 237 240 243 245 247 247 246 246 244 244 245 245 247 249 248 245 245 251 258 254 242 238 241 244 249 255 262 265 265 263 262 262 263 264 268 272 272 270
228 231 232 233 235 239 241 241 241 240 240 241 241 241 242 244 246 246 243 241 245 252 256 247 237 236 240 242 247 253 258 262 262 261 260 261 262 264 269 271 270 270
Height
3148 3149 3151 3152 3153 3155 3156 3157 3158 3159 3160 3160 3161 3162 3162 3163 3163 3162 3162 3162 3162 3162 3162 3165 3167 3167 3167 3167 3167 3166 3165 3165 3165 3164 3163 3162 3160 3158 3155 3152 3151 3152
3146 3147 3148 3149 3151 3153 3154 3155 3156 3157 3158 3159 3160 3160 3161 3162 3162 3161 3161 3161 3161 3160 3160 3162 3164 3165 3166 3166 3166 3164 3163 3161 3162 3162 3161 3160 3158 3156 3154 3151 3149 3148
3143 3144 3146 3147 3148 3150 3152 3153 3154 3155 3156 3157 3158 3159 3160 3161 3161 3160 3160 3160 3160 3159 3158 3159 3161 3162 3163 3165 3165 3164 3162 3160 3158 3158 3158 3158 3156 3153 3151 3149 3148 3146
3140 3142 3143 3144 3146 3147 3149 3151 3152 3153 3154 3155 3156 3157 3158 3159 3159 3159 3159 3158 3159 3158 3157 3157 3158 3160 3160 3161 3163 3163 3162 3160 3157 3156 3155 3154 3153 3151 3149 3147 3146 3144
3137 3139 3141 3142 3143 3144 3146 3148 3149 3150 3151 3153 3154 3155 3156 3157 3157 3157 3157 3157 3157 3157 3157 3155 3155 3156 3158 3159 3160 3161 3161 3159 3157 3155 3152 3151 3149 3148 3146 3145 3144 3142
3135 3136 3138 3139 3140 3141 3143 3145 3147 3148 3149 3150 3151 3153 3154 3155 3155 3155 3155 3156 3156 3156 3156 3155 3153 3153 3154 3155 3156 3157 3158 3157 3155 3153 3151 3149 3146 3145 3143 3143 3142 3141
3131 3134 3135 3136 3138 3139 3140 3142 3144 3145 3146 3147 3149 3150 3151 3152 3153 3153 3153 3154 3154 3154 3154 3154 3153 3152 3152 3152 3153 3154 3154 3154 3153 3151 3150 3148 3146 3143 3142 3140 3139 3138
3128 3130 3132 3133 3135 3136 3138 3139 3141 3142 3143 3144 3146 3147 3148 3149 3150 3151 3151 3151 3152 3152 3153 3152 3152 3152 3151 3151 3151 3151 3151 3151 3151 3149 3148 3147 3145 3143 3140 3138 3136 3136
3124 3126 3128 3130 3132 3133 3135 3136 3137 3139 3140 3141 3143 3144 3146 3147 3147 3148 3148 3149 3150 3150 3150 3150 3150 3150 3150 3149 3149 3149 3149 3149 3148 3147 3146 3144 3143 3141 3139 3137 3135 3134
3119 3122 3124 3126 3129 3131 3132 3134 3134 3135 3137 3138 3139 3141 3143 3144 3145 3145 3146 3146 3147 3148 3149 3148 3148 3148 3148 3147 3147 3147 3147 3146 3146 3145 3143 3142 3140 3139 3137 3136 3135 3134
3115 3117 3120 3123 3125 3127 3129 3131 3131 3132 3133 3135 3136 3138 3140 3141 3142 3142 3143 3144 3145 3146 3146 3146 3146 3146 3146 3145 3145 3145 3144 3144 3143 3142 3141 3140 3138 3137 3136 3135 3134 3133
3111 3113 3116 3119 3122 3124 3126 3127 3128 3129 3130 3131 3133 3135 3137 3138 3139 3139 3140 3141 3142 3143 3144 3144 3144 3144 3144 3143 3143 3142 3142 3141 3141 3140 3139 3138 3137 3136 3135 3134 3133 3133
3107 3110 3113 3116 3118 3120 3122 3124 3125 3126 3127 3129 3130 3132 3134 3135 3135 3136 3138 3138 3139 3141 3141 3142 3142 3142 3142 3142 3141 3140 3139 3139 3139 3138 3137 3136 3135 3134 3133 3132 3132 3132
3104 3107 3109 3112 3115 3117 3119 3120 3121 3122 3124 3126 3127 3129 3131 3132 3133 3134 3135 3136 3137 3138 3139 3139 3140 3140 3140 3140 3139 3138 3138 3137 3136 3136 3135 3134 3134 3133 3132 3131 3131 3131
3101 3103 3106 3109 3111 3113 3115 3117 3118 3119 3121 3123 3125 3127 3128 3129 3130 3131 3132 3133 3134 3136 3136 3137 3137 3138 3138 3138 3137 3136 3136 3135 3134 3134 3133 3133 3133 3133 3132 3131 3130 3131
3097 3100 3102 3105 3107 3109 3112 3113 3115 3116 3118 3120 3122 3123 3125 3126 3128 3129 3130 3131 3132 3133 3134 3134 3135 3136 3136 3136 3135 3134 3134 3133 3132 3132 3131 3131 3131 3131 3131 3129 3129 3130
3093 3096 3098 3100 3103 3106 3108 3110 3112 3114 3115 3117 3119 3121 3122 3123 3125 3126 3127 3128 3130 3131 3131 3132 3133 3133 3133 3133 3132 3132 3132 3131 3130 3130 3129 3129 3129 3129 3129 3128 3128 3128
3088 3091 3093 3096 3099 3102 3104 3106 3108 3110 3112 3114 3116 3118 3119 3121 3122 3123 3125 3126 3127 3128 3129 3130 3131 3131 3130 3130 3130 3129 3129 3129 3128 3128 3127 3127 3127 3127 3127 3127 3127 3127
3083 3086 3089 3092 3095 3098 3100 3102 3105 3107 3109 3111 3113 3115 3116 3118 3119 3120 3122 3123 3124 3125 3126 3128 3128 3128 3128 3128 3128 3127 3127 3127 3126 3126 3125 3125 3125 3125 3125 3125 3126 3126
3078 3081 3085 3088 3091 3094 3096 3098 3101 3104 3106 3108 3109 3111 3113 3114 3116 3117 3119 3120 3121 3122 3124 3125 3126 3126 3125 3125 3125 3125 3125 3125 3124 3124 3123 3124 3123 3123 3124 3124 3124 3125
3074 3076 3080 3084 3087 3089 3091 3094 3097 3100 3102 3104 3106 3108 3109 3111 3113 3114 3116 3117 3117 3119 3121 3123 3123 3123 3123 3123 3123 3123 3123 3123 3122 3122 3122 3122 3122 3122 3122 3122 3123 3123
3070 3072 3076 3080 3083 3085 3087 3090 3093 3095 3098 3100 3102 3104 3105 3107 3109 3110 3112 3113 3114 3115 3118 3120 3120 3120 3120 3120 3120 3120 3120 3120 3120 3120 3120 3120 3120 3120 3120 3121 3121 3122
3066 3068 3072 3076 3079 3080 3083 3086 3089 3092 3094 3096 3098 3100 3101 3103 3105 3106 3108 3110 3111 3112 3115 3117 3118 3117 3117 3117 3118 3118 3118 3118 3118 3118 3118 3118 3118 3118 3118 3119 3119 3120
3063 3065 3069 3072 3074 3077 3080 3083 3085 3088 3090 3092 3094 3096 3097 3100 3101 3102 3104 3106 3108 3109 3112 3114 3114 3115 3115 3115 3115 3115 3116 3116 3116 3116 3117 3117 3117 3116 3116 3117 3118 3118
3061 3062 3065 3068 3071 3074 3077 3080 3082 3085 3086 3088 3090 3092 3094 3096 3097 3099 3101 3103 3105 3106 3108 3110 3111 3112 3112 3112 3112 3113 3113 3114 3114 3114 3115 3115 3115 3115 3115 3115 3116 3116
3058 3059 3062 3065 3068 3071 3074 3076 3078 3080 3082 3084 3086 3088 3090 3092 3094 3096 3098 3100 3101 3103 3105 3107 3108 3108 3109 3109 3110 3110 3111 3111 3111 3112 3112 3113 3113 3113 3113 3114 3114 3114